Time,TemperatureF,DewpointF,PressureIn,WindDirection,WindDirectionDegrees,WindSpeedMPH,WindSpeedGustMPH,Humidity,HourlyPrecipIn,Conditions,Clouds,dailyrainin,SoftwareType,DateUTC
2013-07-18 00:02:00,79.0,66.0,30.26,North,-999,-999.0,-999.0,65,-99.99,,,-99.99,,2013-07-18 05:02:00,
2013-07-18 00:11:00,79.0,66.0,30.26,North,-999,-999.0,-999.0,65,-99.99,,,-99.99,,2013-07-18 05:11:00,
2013-07-18 00:32:00,78.0,66.0,30.26,North,-999,-999.0,-999.0,66,-99.99,,,-99.99,,2013-07-18 05:32:00,
2013-07-18 00:42:00,78.0,66.0,30.26,North,-999,-999.0,-999.0,66,-99.99,,,-99.99,,2013-07-18 05:42:00,
2013-07-18 01:01:00,77.0,66.0,30.26,North,-999,-999.0,-999.0,69,-99.99,,,-99.99,,2013-07-18 06:01:00,
2013-07-18 01:12:00,76.0,66.0,30.26,North,-999,-999.0,-999.0,70,-99.99,,,-99.99,,2013-07-18 06:12:00,
2013-07-18 01:32:00,76.0,66.0,30.25,North,-999,-999.0,-999.0,71,-99.99,,,-99.99,,2013-07-18 06:32:00,
2013-07-18 01:43:00,76.0,66.0,30.25,North,-999,-999.0,-999.0,71,-99.99,,,-99.99,,2013-07-18 06:43:00,
2013-07-18 01:50:00,76.0,66.0,30.24,North,-999,-999.0,-999.0,71,-99.99,,,-99.99,,2013-07-18 06:50:00,
2013-07-18 01:52:00,76.0,66.0,30.25,North,-999,-999.0,-999.0,71,-99.99,,,-99.99,,2013-07-18 06:52:00,
2013-07-18 02:01:00,76.0,66.0,30.25,North,-999,-999.0,-999.0,71,-99.99,,,-99.99,,2013-07-18 07:01:00,
2013-07-18 02:12:00,76.0,66.0,30.25,North,-999,-999.0,-999.0,71,-99.99,,,-99.99,,2013-07-18 07:12:00,
2013-07-18 02:32:00,76.0,66.0,30.24,North,-999,-999.0,-999.0,71,-99.99,,,-99.99,,2013-07-18 07:32:00,
2013-07-18 02:42:00,76.0,66.0,30.24,North,-999,-999.0,-999.0,71,-99.99,,,-99.99,,2013-07-18 07:42:00,
2013-07-18 05:32:00,75.0,65.0,30.21,North,-999,-999.0,-999.0,70,-99.99,,,-99.99,,2013-07-18 10:32:00,
2013-07-18 05:43:00,74.0,64.0,30.21,North,-999,-999.0,-999.0,70,-99.99,,,-99.99,,2013-07-18 10:43:00,
2013-07-18 06:00:00,73.0,64.0,30.22,North,-999,-999.0,-999.0,75,-99.99,,,-99.99,,2013-07-18 11:00:00,
2013-07-18 06:01:00,74.0,64.0,30.22,North,-999,-999.0,-999.0,70,-99.99,,,-99.99,,2013-07-18 11:01:00,
2013-07-18 06:11:00,74.0,64.0,30.22,North,-999,-999.0,-999.0,71,-99.99,,,-99.99,,2013-07-18 11:11:00,
2013-07-18 06:22:00,74.0,64.0,30.22,North,-999,-999.0,-999.0,71,-99.99,,,-99.99,,2013-07-18 11:22:00,
2013-07-18 06:32:00,73.0,64.0,30.22,North,-999,-999.0,-999.0,74,-99.99,,,-99.99,,2013-07-18 11:32:00,
2013-07-18 06:43:00,73.0,64.0,30.22,North,-999,-999.0,-999.0,75,-99.99,,,-99.99,,2013-07-18 11:43:00,
2013-07-18 06:52:00,73.0,64.0,30.22,North,-999,-999.0,-999.0,75,-99.99,,,-99.99,,2013-07-18 11:52:00,
2013-07-18 07:11:00,73.0,64.0,30.22,North,-999,-999.0,-999.0,74,-99.99,,,-99.99,,2013-07-18 12:11:00,
2013-07-18 07:22:00,73.0,64.0,30.22,North,-999,-999.0,-999.0,74,-99.99,,,-99.99,,2013-07-18 12:22:00,
2013-07-18 07:32:00,74.0,65.0,30.22,North,-999,-999.0,-999.0,73,-99.99,,,-99.99,,2013-07-18 12:32:00,
2013-07-18 07:42:00,75.0,65.0,30.22,North,-999,-999.0,-999.0,71,-99.99,,,-99.99,,2013-07-18 12:42:00,
2013-07-18 08:01:00,76.0,65.0,30.23,North,-999,-999.0,-999.0,69,-99.99,,,-99.99,,2013-07-18 13:01:00,
2013-07-18 08:11:00,76.0,66.0,30.22,North,-999,-999.0,-999.0,69,-99.99,,,-99.99,,2013-07-18 13:11:00,
2013-07-18 08:22:00,76.0,66.0,30.22,North,-999,-999.0,-999.0,69,-99.99,,,-99.99,,2013-07-18 13:22:00,
2013-07-18 08:43:00,78.0,67.0,30.23,North,-999,-999.0,-999.0,68,-99.99,,,-99.99,,2013-07-18 13:43:00,
2013-07-18 09:02:00,81.0,67.0,30.23,North,-999,-999.0,-999.0,63,-99.99,,,-99.99,,2013-07-18 14:02:00,
2013-07-18 09:12:00,82.0,68.0,30.22,North,-999,-999.0,-999.0,63,-99.99,,,-99.99,,2013-07-18 14:12:00,
2013-07-18 09:33:00,84.0,69.0,30.22,North,-999,-999.0,-999.0,61,-99.99,,,-99.99,,2013-07-18 14:33:00,
2013-07-18 09:43:00,85.0,69.0,30.22,North,-999,-999.0,-999.0,59,-99.99,,,-99.99,,2013-07-18 14:43:00,
2013-07-18 09:52:00,87.0,69.0,30.22,North,-999,-999.0,-999.0,55,-99.99,,,-99.99,,2013-07-18 14:52:00,
2013-07-18 10:01:00,87.0,69.0,30.22,North,-999,-999.0,-999.0,55,-99.99,,,-99.99,,2013-07-18 15:01:00,
2013-07-18 10:11:00,87.0,70.0,30.22,North,-999,-999.0,-999.0,57,-99.99,,,-99.99,,2013-07-18 15:11:00,
2013-07-18 10:22:00,87.0,70.0,30.22,North,-999,-999.0,-999.0,57,-99.99,,,-99.99,,2013-07-18 15:22:00,
2013-07-18 10:32:00,88.0,70.0,30.22,North,-999,-999.0,-999.0,57,-99.99,,,-99.99,,2013-07-18 15:32:00,
2013-07-18 10:43:00,88.0,69.0,30.22,North,-999,-999.0,-999.0,54,-99.99,,,-99.99,,2013-07-18 15:43:00,
2013-07-18 11:01:00,89.0,70.0,30.22,North,-999,-999.0,-999.0,54,-99.99,,,-99.99,,2013-07-18 16:01:00,
2013-07-18 11:11:00,90.0,70.0,30.21,North,-999,-999.0,-999.0,52,-99.99,,,-99.99,,2013-07-18 16:11:00,
2013-07-18 11:32:00,90.0,70.0,30.21,North,-999,-999.0,-999.0,51,-99.99,,,-99.99,,2013-07-18 16:32:00,
2013-07-18 11:42:00,91.0,67.0,30.20,North,-999,-999.0,-999.0,46,-99.99,,,-99.99,,2013-07-18 16:42:00,
2013-07-18 11:52:00,92.0,67.0,30.21,North,-999,-999.0,-999.0,45,-99.99,,,-99.99,,2013-07-18 16:52:00,
2013-07-18 12:02:00,92.0,67.0,30.21,North,-999,-999.0,-999.0,45,-99.99,,,-99.99,,2013-07-18 17:02:00,
2013-07-18 12:11:00,91.0,68.0,30.21,North,-999,-999.0,-999.0,46,-99.99,,,-99.99,,2013-07-18 17:11:00,
2013-07-18 12:33:00,92.0,68.0,30.20,North,-999,-999.0,-999.0,45,-99.99,,,-99.99,,2013-07-18 17:33:00,
2013-07-18 12:43:00,93.0,67.0,30.19,North,-999,-999.0,-999.0,43,-99.99,,,-99.99,,2013-07-18 17:43:00,
2013-07-18 13:01:00,94.0,66.0,30.19,North,-999,-999.0,-999.0,40,-99.99,,,-99.99,,2013-07-18 18:01:00,
2013-07-18 13:11:00,93.0,69.0,30.19,North,-999,-999.0,-999.0,46,-99.99,,,-99.99,,2013-07-18 18:11:00,
2013-07-18 13:22:00,93.0,69.0,30.19,North,-999,-999.0,-999.0,46,-99.99,,,-99.99,,2013-07-18 18:22:00,
2013-07-18 13:32:00,94.0,66.0,30.18,North,-999,-999.0,-999.0,40,-99.99,,,-99.99,,2013-07-18 18:32:00,
2013-07-18 13:43:00,95.0,66.0,30.18,North,-999,-999.0,-999.0,38,-99.99,,,-99.99,,2013-07-18 18:43:00,
2013-07-18 13:52:00,95.0,67.0,30.17,North,-999,-999.0,-999.0,40,-99.99,,,-99.99,,2013-07-18 18:52:00,
2013-07-18 14:02:00,95.0,67.0,30.17,North,-999,-999.0,-999.0,40,-99.99,,,-99.99,,2013-07-18 19:02:00,
2013-07-18 14:11:00,96.0,67.0,30.16,North,-999,-999.0,-999.0,39,-99.99,,,-99.99,,2013-07-18 19:11:00,
2013-07-18 14:30:00,96.0,64.0,30.13,North,-999,-999.0,-999.0,36,-99.99,,,-99.99,,2013-07-18 19:30:00,
2013-07-18 14:32:00,95.0,63.0,30.15,North,-999,-999.0,-999.0,35,-99.99,,,-99.99,,2013-07-18 19:32:00,
2013-07-18 14:43:00,95.0,66.0,30.14,North,-999,-999.0,-999.0,39,-99.99,,,-99.99,,2013-07-18 19:43:00,
2013-07-18 14:53:00,95.0,63.0,30.13,North,-999,-999.0,-999.0,36,-99.99,,,-99.99,,2013-07-18 19:53:00,
2013-07-18 15:02:00,95.0,63.0,30.13,North,-999,-999.0,-999.0,36,-99.99,,,-99.99,,2013-07-18 20:02:00,
2013-07-18 15:11:00,96.0,64.0,30.13,North,-999,-999.0,-999.0,36,-99.99,,,-99.99,,2013-07-18 20:11:00,
2013-07-18 15:22:00,96.0,64.0,30.13,North,-999,-999.0,-999.0,36,-99.99,,,-99.99,,2013-07-18 20:22:00,